COSMOS 2251 DEB, 36551

Orbit data source: Space-Track

COSMOS 2251 DEB, 36551 is space debris in LEO originally from a launch on Wed, 16 Jun 1993 UTC launched from the Plesetsk Missile And Space Complex (PKMTR). The debris from Iridium 33, an American commercial communications satellite, has been tracked extensively since its accidental collision with the defunct Russian satellite Cosmos 2251 in 2009. This event, occurring at high speed in low Earth orbit (LEO), generated thousands of pieces of space debris, significantly increasing the risk of further collisions. The Iridium 33 debris cloud has impacted space traffic management and orbital debris mitigation strategies, making it a subject of ongoing study in space situational awareness.

Loading next visibility...
Identifier
36551, 1993-036BDM
Orbit
LEO
Country
Flag of CISCIS
Related business
Manufacturer
Unknown
Mission
Spacecraft
Bus & Motor
Unknown
Mass
Unknown
Launch date (UTC)
1993-06-16 (32 years ago)
Launch vehicle
Unknown
Launch site
Plesetsk Missile And Space Complex (PKMTR)
Object type
Payload
Rocket body
Debris
Shape & HBR
Unknown shape, 0.1 m
Radar Cross Section
Small (<0.1 m²)

Expand to show TLE details & history
Last TLE update: 2 days ago

TLE from 2 days ago
0 COSMOS 2251 DEB
1 36551U 93036BDM 25302.85512353  .00025495  00000-0  19901-2 0  9992
2 36551  73.8857 104.9076 0048960  65.7784 294.8507 15.00083431662735
Epoch: 2025-10-29T20:31Z
TLE epoch observation values (Epoch: 2025-10-29T20:31:22.672Z)
Latitude
0.00001°
Longitude
118.64086°
Altitude
555.164 km
Speed
7.592 km/s
True Right ascension
06h 59m 37s
True Declination
0° 00' 00"
Sunlit
Object was in daylight at epoch
Visualization orbit readout
Latitude
Unknown
Longitude
Unknown
Altitude
Unknown
Speed
Unknown
Apparent Right ascension
Unknown
Apparent Declination
Unknown
Sunlit
N/A
Visualization observer readout
Local Sidereal Time
01:12:24
Azimuth
Unknown
Elevation
Unknown
Doppler factor
Unknown
Orbital elements
Apogee altitude
598.195 km
Perigee altitude
530.216 km
Semi-major axis
6,942.343 km
Eccentricity
0.0049
Inclination
73.8857°
RAAN
104.9076°
Arg. of periapsis
65.7784°
True anomaly
294.3403°
Mean anomaly
294.8507°
Eccentric anomaly
294.59563°
Mean motion
3.75218 °/min
Orbital period
95.94 mins
BSTAR
0.0019901
Loading maneuver chart data...
Computing Atmospheric mass density...

Documentation

Showing up to 5 results
|